Regional Weather Roundup
Issued by NWS Mobile, AL

Home | Current Version | Previous Version | Text Only | Print | Product List | Glossary On
Versions: 1 2 3 4 5 6 7 8 9 10 11 12 13 14 15 16 17 18 19 20 21 22 23 24 25 26 27
000
ASUS44 KMOB 171812
RWRMOB
REGIONAL WEATHER ROUNDUP
NATIONAL WEATHER SERVICE MOBILE AL
1200 PM CST TUE JAN 17 2017

NOTE: "FAIR" INDICATES FEW OR NO CLOUDS BELOW 12,000 FEET WITH NO
      SIGNIFICANT WEATHER AND/OR OBSTRUCTIONS TO VISIBILITY.

  * THESE STATIONS ARE PART OF THE UNIVERSITY OF SOUTH ALABAMA
    MESONET AND ARE NOT UNDER NWS OR FAA QUALITY CONTROL.

ALZ061>064-171900-
COASTAL ALABAMA

CITY           SKY/WX    TMP DP  RH WIND       PRES   REMARKS
MOBILE REG APT PTSUNNY   76  64  66 S15       30.16F
6HR MIN TEMP:  66; 6HR MAX TEMP:  78;

BROOKLEY FIELD MOSUNNY   73  68  84 SE9       30.17F
6HR MIN TEMP:  67; 6HR MAX TEMP:  76;

USA CAMPUS*      N/A     77  64  65 SE5       30.16F
DOG RIVER*       N/A     73  68  83 S7        30.97F


CITY           SKY/WX    TMP DP  RH WIND       PRES   REMARKS
GULF SHORES    MOSUNNY   73  70  92 SE12      30.18F

$$

ALZ051>060-171900-
INTERIOR SOUTHWEST AND SOUTH CENTRAL ALABAMA

CITY           SKY/WX    TMP DP  RH WIND       PRES   REMARKS
GREENVILLE     PTSUNNY   74  62  66 SW8       30.17
6HR MIN TEMP:  58; 6HR MAX TEMP:  74;

EVERGREEN      PTSUNNY   75  62  64 SW9       30.18F
6HR MIN TEMP:  63; 6HR MAX TEMP:  76;

ATMORE*          N/A     72  68  88 S8        30.19F
ANDALUSIA/OPP  CLOUDY    76  62  62 S10       30.18F
6HR MIN TEMP:  59; 6HR MAX TEMP:  77;

ANDALUSIA*       N/A     73  63  68 SW7       30.19F
FLORALA APT    CLOUDY    73  62  68 S9        30.20F
6HR MIN TEMP:  57; 6HR MAX TEMP:  73; 6HR PCP: TRACE;

FLORALA*         N/A     73  64  73 S5        30.96F

$$

FLZ001>006-171900-
WESTERN FLORIDA PANHANDLE

CITY           SKY/WX    TMP DP  RH WIND       PRES   REMARKS
PENSACOLA      PTSUNNY   77  66  68 S9        30.18F
6HR MIN TEMP:  65; 6HR MAX TEMP:  77;

NAS PENSACOLA  PTSUNNY   75  66  73 SE8       30.17F
6HR MIN TEMP:  62; 6HR MAX TEMP:  76;

MILTON         CLOUDY    74  65  73 S13       30.18F
WHTNG S FIELD  CLOUDY    77  66  68 S12       30.18F
6HR MIN TEMP:  64; 6HR MAX TEMP:  77;



CITY           SKY/WX    TMP DP  RH WIND       PRES   REMARKS
JAY*             N/A     72  66  83 S7        30.19F
CRESTVIEW      CLOUDY    73  63  70 S7        30.21F
6HR MIN TEMP:  54; 6HR MAX TEMP:  74;

VALPARAISO     NOT AVBL
DESTIN         CLOUDY    75  67  76 SE6       30.20F
6HR MIN TEMP:  66; 6HR MAX TEMP:  75;


$$

MSZ076-079-171900-
INTERIOR SOUTHEAST MISSISSIPPI

CITY           SKY/WX    TMP DP  RH WIND       PRES   REMARKS
LEAKESVILLE*   NOT AVBL
AGRICOLA*      NOT AVBL

$$

MARINE OBSERVATIONS

STATION/POSITION TIME  TEMP    WIND        PRES    WAVE
                       AIR SEA DIR/SP/G            HT/PER
                 (UTC) (F)     (DEG/KT/KT) (MB)    (FT/S)
PASCAGOULA       1748   68     160/  8/ 10 1021.3F
PETIT BOIS ISLND 1748   66     150/  7/  9 1021.9F
GRAND BAY        1630   67     140/  6     1023.0S
KATRINA CUT      1730          150/ 10     1021.7F
CEDAR POINT      1730   69     170/  8     1022.0F
E DAUPHIN ISLAND 1700   67     140/  7/  7 1021.9F
MIDDLE BAY LIGHT 1730   66     130/  7     1022.0F
USCG MOBILE BAY  1748   68 60  150/  4/  6 1022.1F
STATE DOCKS      1748                      1021.4F
MEAHER PARK      1730   68     210/  5     1022.0F
WEEKS BAY        1645   75                   N/A
FORT MORGAN      1748   68     170/ 12/ 12   N/A
12 S ORANGE BCH  1750   70 67  150/  6/  6 1021.7F   4/ 6
PENSACOLA BAY    1742   75 62   70/  1/  2 1022.3F
67 S FORT MORGAN 1730   72                 1022.0F

$$

SELECTED LOCATIONS ACROSS THE REGION

CITY           SKY/WX    TMP DP  RH WIND       PRES   REMARKS
NEW ORLEANS    PTSUNNY   76  67  73 S10       30.14F
GULFPORT       CLOUDY    72  68  87 S8        30.15F
PASCAGOULA AP  CLOUDY    75  67  76 S10       30.16F
PASCAGOULA*    NOT AVBL
HATTIESBURG    PTSUNNY   77  66  68 S10       30.14F
LAUREL         CLOUDY    73  64  73 SW9       30.17F
MERIDIAN       CLOUDY    76  65  68 S13       30.12F
JACKSON        PTSUNNY   76  62  62 S14G23    30.11F
MONTGOMERY     MOSUNNY   75  61  61 SW10      30.18F
TROY           MOSUNNY   74  61  63 SW14      30.20F
ASHFORD*         N/A     73  63  68 SW7       30.19F
DOTHAN         PTSUNNY   75  60  59 S9        30.24F
PANAMA CITY    PTSUNNY   74  66  76 SE8       30.20F

$$





USA.gov is the U.S. government's official web portal to all federal, state and local government web resources and services.